Location: Oshawa
(43.9000°N, 78.8670°W)
Time: 15:55:32
(UTC-04:00)

Thor Agena Rocket - Visible Passes

Search period start: 26 August 2016 00:00
Search period end: 05 September 2016 00:00
Orbit: 760 x 808 km, 99.1° (Epoch: 26 August)

Date Brightness Start Highest point End Pass type
(mag) Time Alt. Az. Time Alt. Az. Time Alt. Az.
26 Aug 4.5 04:41:06 10° SE 04:46:02 50° ENE 04:51:05 10° N visible
27 Aug 5.6 04:10:45 10° ESE 04:15:04 28° ENE 04:19:26 10° N visible
27 Aug 4.0 05:49:21 10° SSW 05:54:10 40° W 05:59:04 10° NNW visible
28 Aug 6.4 03:41:13 10° E 03:44:14 16° ENE 03:47:18 10° NNE visible
28 Aug 3.5 05:17:44 10° S 05:22:52 78° WSW 05:28:07 10° NNW visible
29 Aug 4.3 04:46:42 10° SSE 04:51:43 56° ENE 04:56:50 10° N visible
30 Aug 5.4 04:16:16 10° SE 04:20:43 31° ENE 04:25:16 10° N visible
30 Aug 4.1 05:55:10 10° SSW 05:59:54 37° W 06:04:44 10° NNW visible
31 Aug 6.3 03:46:33 10° E 03:49:53 17° ENE 03:53:14 10° NNE visible
31 Aug 3.5 05:23:27 10° S 05:28:35 71° WSW 05:33:50 10° NNW visible
01 Sep 4.1 04:52:19 10° SSE 04:57:25 62° ENE 05:02:36 10° N visible
02 Sep 5.3 04:21:47 10° SE 04:26:24 34° ENE 04:31:04 10° N visible
02 Sep 4.2 06:01:00 10° SSW 06:05:39 33° W 06:10:23 10° NNW visible
03 Sep 6.2 03:51:56 10° ESE 03:55:32 19° ENE 03:59:09 10° NNE visible
03 Sep 3.5 05:29:10 10° S 05:34:18 64° WSW 05:39:32 10° NNW visible
04 Sep 6.7 03:23:42 10° ENE 03:24:48 11° NE 03:25:56 10° NE visible
04 Sep 3.9 04:57:58 10° SSE 05:03:06 69° ENE 05:08:21 10° N visible
